Location: *
(43.0409°N, 0.1694°E)
Time: 22:59:49
(UTC+00:00)

Okean 1 - Pass Details

Date: 03 October 2023
Orbit: 514 x 540 km, 82.5° (Epoch: 05 December)

Event Time Altitude Azimuth Distance (km) Brightness Sun altitude
Exits shadow 02:57:02 - 123° (ESE) 2,356 6.9 -32.8°
Enters shadow 04:13:23 -40° 188° (S) 8,913 9.4 -19.9°
Maximum altitude 04:35:46 65° 279° (W) 570 3.1 -15.9°
